Theta_e
280 281 281 280 277 277 276 276 276 276 277 276 274 274 276 275 272 270 274 275 274 276 277 279 279 279 278 277 277 278 279 278 278 277 277 277 277 278 277 277 277 276 276 276 275 275 275 275 275 274 274 274 274 273 273 273 273 273 272 271 271 270 269 269 269 269 270 270 270 270 270 270 269 270 270 271 271 272 273 274 275 275 276 277 278 278 280
279 280 280 280 279 278 277 277 277 277 276 276 276 276 276 276 274 276 275 275 275 278 279 280 280 281 279 278 279 278 277 277 277 277 277 277 277 277 277 277 276 276 275 275 275 275 274 274 274 273 273 273 272 272 272 273 272 272 272 271 269 269 269 269 269 269 269 269 269 269 269 268 268 269 269 270 270 271 272 273 274 275 276 277 277 278 279
276 278 279 279 278 277 275 276 277 277 277 276 276 276 276 277 275 276 275 275 274 279 281 281 282 280 280 278 277 277 277 277 276 276 276 277 277 277 277 276 275 275 275 274 274 274 273 273 273 272 272 272 271 271 271 272 272 271 271 270 269 269 268 268 269 268 268 268 268 268 268 268 268 268 268 269 269 270 271 273 274 275 276 276 277 278 279
274 277 276 277 277 276 275 274 275 276 275 274 275 274 276 275 273 275 274 273 274 279 281 281 279 278 278 276 277 277 277 277 276 276 276 276 276 276 276 275 275 274 274 273 273 273 272 272 272 271 271 271 270 270 271 271 271 271 270 269 268 268 268 268 268 268 267 267 267 267 267 267 267 268 268 268 269 270 271 272 274 275 275 276 277 278 279
273 275 276 274 273 273 270 271 274 276 277 277 278 278 278 277 277 274 271 273 278 279 280 278 277 277 277 276 277 276 276 276 276 275 276 276 276 276 275 274 274 274 273 273 272 272 272 271 271 271 271 270 269 269 270 270 270 269 269 268 268 268 268 267 267 267 267 266 266 266 266 266 267 267 267 268 268 269 270 272 274 275 275 276 277 278 278
271 271 273 274 270 265 269 277 279 278 275 276 275 275 277 278 278 276 278 278 279 279 278 276 275 276 276 276 278 278 277 276 276 276 275 275 275 275 274 274 273 273 273 272 272 272 271 271 271 271 270 269 269 269 269 269 269 268 268 267 267 267 267 267 267 267 266 266 265 265 265 266 266 266 266 267 268 268 269 271 273 275 276 276 277 277 278
270 272 272 268 265 268 277 277 279 280 279 278 277 277 278 278 279 279 278 278 279 280 278 278 277 277 277 277 277 277 277 278 276 275 275 275 274 274 273 273 273 272 272 271 271 270 270 270 270 269 268 268 268 268 268 268 268 267 267 267 266 266 266 267 267 266 265 264 264 264 264 265 265 265 265 266 266 267 268 270 272 274 276 276 277 278 278
272 269 269 264 267 275 275 275 277 279 278 277 276 275 277 278 278 278 277 278 279 279 278 277 277 277 277 277 277 278 277 276 275 275 274 274 273 273 273 272 272 271 271 270 270 269 270 269 268 268 267 268 267 267 267 267 267 267 266 266 266 266 266 266 265 265 264 264 263 264 264 264 264 264 265 265 266 267 268 269 271 275 277 278 278 278 280
265 271 268 270 276 275 277 275 275 275 273 274 274 269 273 277 278 278 277 278 278 277 277 277 277 277 276 275 276 277 277 276 276 275 274 274 273 273 272 272 271 271 271 270 269 269 268 268 267 267 267 267 266 265 265 266 266 266 266 265 265 265 264 264 264 264 263 263 263 263 263 263 263 264 264 265 266 268 268 269 270 273 276 278 279 280 280
272 266 268 269 268 266 272 278 280 281 280 279 278 274 272 278 278 279 278 277 277 276 276 276 276 276 273 271 274 275 275 276 275 275 274 274 273 272 272 271 271 270 270 269 269 268 267 266 266 266 266 265 265 265 265 265 265 265 265 264 264 264 263 263 263 263 263 263 262 262 263 263 263 264 265 266 267 268 268 268 270 274 277 278 279 280 281
272 269 267 266 265 269 275 274 278 279 279 278 277 272 269 276 278 279 278 277 276 276 275 275 275 272 267 268 274 275 275 274 274 273 273 272 272 271 271 270 269 269 269 268 267 266 266 264 265 265 264 264 264 264 264 264 264 264 263 263 263 263 262 263 263 263 263 262 262 262 262 263 264 264 265 266 267 268 268 269 270 272 276 279 280 281 281
272 270 268 267 271 271 275 276 277 278 279 279 275 265 267 276 278 278 278 277 276 276 276 276 274 272 267 270 274 275 274 274 274 273 272 271 271 270 270 269 269 269 268 266 265 264 264 264 264 264 263 263 263 263 263 264 263 263 263 263 263 263 262 262 262 262 262 262 262 262 262 263 264 265 266 267 267 267 268 269 270 274 276 277 278 279 281
272 273 269 271 272 278 277 277 277 278 279 276 266 265 272 277 277 278 278 277 277 277 276 276 271 275 276 276 276 274 274 273 273 273 272 271 270 269 269 269 270 267 266 265 264 264 264 264 263 263 263 262 262 262 263 262 262 262 263 263 262 262 262 261 261 261 262 262 261 262 263 264 266 267 267 267 268 268 269 270 271 273 275 277 278 279 280
269 271 269 269 272 278 278 278 278 279 275 266 267 275 278 277 276 277 278 277 277 277 277 276 276 277 277 276 275 274 273 273 272 272 271 270 270 269 269 269 267 265 264 263 263 263 263 263 263 262 262 261 261 262 262 261 262 262 262 262 262 261 260 260 260 261 261 262 263 263 265 267 267 268 269 270 269 270 270 270 272 274 277 278 279 281 284
272 271 268 267 265 276 280 278 276 278 272 273 277 277 277 279 278 278 277 278 278 278 277 277 277 277 276 275 274 273 272 272 271 270 270 269 268 267 266 265 265 264 262 262 262 262 262 262 262 262 261 260 261 261 261 261 262 262 261 261 260 260 259 259 260 260 261 262 263 266 267 268 269 270 271 272 272 272 271 272 273 276 277 278 280 281 283
266 268 266 266 274 278 280 278 273 276 279 280 279 278 277 278 278 278 278 278 279 278 278 277 276 276 274 273 273 272 271 271 270 269 268 267 267 266 266 265 264 263 262 262 261 261 261 262 261 261 260 260 260 260 260 261 262 261 260 260 259 259 259 259 260 260 262 263 266 267 267 268 269 270 272 273 274 275 276 276 277 279 280 282 282 282 283
272 271 275 278 279 280 280 281 280 280 281 281 280 279 279 279 278 279 278 278 279 278 277 276 275 273 273 273 273 270 270 269 268 268 268 267 266 265 264 263 263 262 261 260 260 260 260 260 261 261 261 259 259 258 260 261 260 259 259 258 258 257 258 259 259 260 263 265 266 266 266 267 267 268 270 273 274 277 278 280 280 281 282 282 282 282 283
280 281 280 280 280 280 279 281 281 280 280 280 280 279 278 280 279 279 278 278 277 276 275 273 272 272 272 271 270 269 268 267 267 267 266 265 265 264 263 262 262 261 260 259 259 258 259 260 260 260 260 260 258 258 259 259 259 259 258 257 257 257 257 258 259 261 263 264 264 265 265 266 266 267 268 270 273 275 278 280 281 282 282 283 283 284 284
277 273 281 278 279 280 280 280 280 280 280 280 280 280 279 279 279 278 278 277 276 274 273 273 273 272 271 270 269 268 266 266 265 265 264 264 263 262 261 261 261 260 259 258 257 257 257 259 260 260 259 259 259 259 258 259 258 258 257 256 256 257 257 258 260 262 262 262 263 264 264 265 266 267 268 269 270 273 275 277 279 281 283 283 284 285 285
277 276 279 281 281 281 281 281 280 279 279 279 279 278 278 278 277 276 276 275 273 272 271 272 271 270 270 268 267 266 265 264 264 263 263 262 262 261 261 261 260 258 258 257 257 257 257 258 259 259 258 258 258 258 258 258 257 256 256 256 256 256 257 259 260 261 261 264 263 263 263 264 264 265 266 268 269 270 272 274 276 278 280 282 283 284 285
279 280 280 279 280 280 280 280 280 281 281 279 278 277 276 275 274 273 272 273 272 272 272 271 270 268 268 266 265 264 263 263 263 262 261 261 260 260 260 259 259 258 257 256 256 256 257 258 258 258 257 257 257 257 257 257 256 255 255 255 256 256 258 259 260 261 261 261 261 261 262 263 264 265 265 266 267 269 271 273 274 277 279 282 283 284 285
275 276 279 280 275 274 278 279 280 280 280 280 277 275 274 274 273 272 271 271 271 271 271 270 269 266 265 265 264 262 263 262 262 261 260 259 259 259 259 259 258 257 257 256 256 256 257 257 257 256 256 256 256 257 256 256 256 255 255 255 255 256 258 259 259 260 260 260 260 261 262 262 263 263 268 270 269 268 268 273 275 278 279 277 279 282 285
276 281 282 283 282 281 281 280 280 280 279 278 276 276 275 275 274 272 271 269 268 267 267 267 266 265 264 264 264 262 261 261 261 260 259 258 258 258 258 257 256 256 256 256 256 255 256 257 256 255 255 255 255 256 256 255 255 254 254 255 255 256 257 258 259 259 259 259 260 260 261 261 261 261 262 263 268 270 271 272 273 275 277 278 280 281 281
282 281 282 282 281 280 280 280 281 280 280 279 277 277 276 276 274 273 272 270 268 267 265 264 265 264 264 263 262 260 260 260 259 258 259 259 258 258 258 256 255 255 255 255 255 255 256 256 255 255 254 255 255 255 255 255 255 254 254 255 255 255 257 258 259 259 259 259 259 259 260 260 261 261 260 260 261 266 269 270 271 273 274 275 277 278 279
280 281 280 281 280 279 278 278 278 279 279 279 278 277 276 275 273 273 272 271 269 267 265 264 264 264 262 262 260 259 259 258 258 258 259 258 259 257 256 255 254 254 254 255 255 255 255 254 254 254 253 254 254 254 254 254 254 254 254 255 255 255 257 258 258 259 259 259 259 259 259 259 259 260 259 259 258 258 261 267 269 270 271 273 274 275 276
281 279 278 278 277 276 276 276 276 276 277 277 275 273 274 274 272 271 270 268 266 266 265 263 263 263 262 260 260 259 258 257 258 258 257 256 256 255 254 254 255 255 254 254 254 254 254 254 253 253 253 253 254 254 254 254 253 253 254 255 255 256 257 258 258 258 258 258 258 259 259 259 258 259 259 259 258 258 258 258 260 263 267 269 271 273 273
280 279 278 277 276 274 276 277 277 276 275 275 274 272 271 270 269 267 265 264 263 263 263 263 262 261 260 259 258 258 256 257 257 256 256 255 255 254 255 255 254 254 253 253 253 254 254 253 253 252 252 253 253 253 253 253 253 253 254 255 255 257 260 259 258 258 258 258 258 258 259 258 258 258 258 258 258 258 257 257 257 257 258 260 266 270 268
281 279 280 278 276 276 276 277 277 275 275 274 271 269 267 265 263 261 260 260 260 260 261 260 259 257 257 257 256 256 257 255 255 255 255 254 255 255 255 254 253 253 253 253 253 253 253 252 252 251 251 253 253 253 253 253 252 253 254 254 255 255 256 258 258 258 258 258 258 258 258 258 258 258 258 258 257 257 257 257 257 256 257 258 261 265 268
280 280 280 280 279 276 275 275 273 273 271 271 269 267 265 263 261 261 261 261 261 260 260 259 258 258 257 257 256 255 255 255 254 254 254 254 255 255 254 253 252 252 252 252 252 252 252 251 251 251 251 252 253 253 253 252 252 253 253 254 254 255 256 257 258 258 258 258 258 258 259 258 258 257 257 257 257 257 257 256 256 256 256 256 260 260 263
280 280 279 278 273 273 274 272 272 271 270 268 266 264 265 264 262 262 262 262 260 259 260 259 257 257 257 255 255 254 254 254 253 253 254 254 254 253 253 252 252 252 252 251 251 251 251 251 250 250 251 252 252 252 252 252 252 252 253 254 254 255 256 257 258 258 257 257 257 259 258 258 257 257 257 257 257 256 256 256 256 256 255 255 259 259 258
279 277 277 274 273 274 275 274 271 269 268 267 266 264 263 263 264 263 262 262 261 261 260 258 257 256 255 254 254 254 253 253 253 253 253 254 253 253 252 251 249 249 250 250 250 251 250 250 250 250 251 252 252 252 252 251 252 252 252 254 254 257 259 260 260 257 256 256 256 256 256 257 256 256 256 256 256 256 255 255 255 255 255 255 255 258 259
273 270 270 271 271 271 270 269 269 268 266 266 264 264 263 263 264 264 263 262 261 261 259 258 256 256 255 254 254 253 253 253 252 252 253 253 252 252 251 251 250 252 250 250 250 251 250 250 249 250 251 252 252 252 252 251 251 251 252 254 253 254 256 259 256 256 256 256 256 256 256 256 255 256 255 255 255 255 255 254 254 254 254 254 254 256 260
272 268 268 265 265 266 267 268 269 267 265 264 266 267 266 265 266 265 264 263 261 260 259 257 256 255 254 253 253 253 252 252 251 252 251 251 250 250 251 251 250 250 250 250 250 250 249 249 249 251 251 251 252 252 252 252 252 251 251 252 252 254 255 256 256 255 255 255 255 255 255 255 255 255 255 255 255 255 255 254 254 254 254 254 254 255 260
277 277 277 274 273 272 270 269 268 268 267 266 266 265 265 264 263 263 263 261 260 259 258 256 255 254 253 252 252 252 251 251 252 252 251 250 251 250 250 250 247 247 249 250 251 250 249 250 250 251 251 252 252 252 251 252 251 251 251 252 252 253 253 253 254 254 253 254 254 255 255 255 254 254 254 254 254 254 254 254 254 254 253 254 254 254 259
280 280 280 278 276 276 275 274 270 269 268 266 264 264 264 263 262 262 262 261 260 259 257 255 254 253 252 252 251 251 251 251 251 251 250 251 250 250 250 248 247 247 249 250 249 249 249 249 250 251 251 251 251 251 251 251 251 251 251 252 252 253 252 253 253 253 253 253 253 253 254 253 253 255 254 254 253 254 253 253 253 253 253 253 253 254 255
279 278 278 276 275 274 274 273 271 270 269 268 267 265 264 263 262 261 260 260 258 257 255 254 253 252 252 251 251 251 251 251 251 250 251 250 250 251 250 249 249 249 248 248 249 249 249 250 253 254 252 251 251 250 251 252 251 250 251 251 251 252 252 253 252 253 253 253 253 253 253 254 254 253 253 253 253 253 253 252 253 252 252 253 253 253 253
278 278 277 276 275 273 272 272 271 269 268 268 266 265 263 262 262 261 259 257 256 255 254 253 252 251 251 252 252 252 252 251 251 251 250 250 250 249 249 249 249 246 248 246 248 249 249 250 253 253 251 250 250 250 251 254 251 250 250 250 250 251 251 251 252 251 252 252 252 252 253 253 253 252 253 252 252 252 252 252 252 252 252 252 252 253 253
277 277 277 276 274 272 271 270 269 269 267 265 263 264 264 262 260 259 257 255 254 254 253 252 252 252 252 252 251 250 251 251 250 250 250 249 250 247 246 246 245 244 244 244 246 247 248 251 253 251 250 250 249 250 251 254 254 250 249 250 250 250 251 251 251 251 251 251 252 251 251 251 251 251 252 252 251 251 252 252 252 252 251 252 252 252 252
273 270 270 269 270 268 261 261 264 267 267 266 263 261 260 259 258 257 255 254 253 253 252 252 252 251 251 250 250 250 250 250 250 249 249 246 246 245 245 244 244 244 244 244 245 247 250 251 250 250 250 249 249 250 251 253 254 249 249 249 249 250 250 250 250 250 251 251 251 251 250 250 251 251 251 251 251 251 251 251 251 251 251 251 251 251 251
273 271 269 267 267 263 263 262 261 262 261 264 261 258 257 257 256 255 253 252 252 253 252 252 251 251 251 251 250 249 250 250 250 250 250 247 246 245 245 248 248 249 249 251 249 249 251 252 250 249 249 249 249 249 250 251 252 250 249 248 249 249 249 250 249 249 249 249 250 251 250 250 250 250 251 251 250 251 250 250 250 250 250 250 250 251 251
271 267 264 266 264 263 262 261 258 256 257 258 258 257 257 256 255 254 252 252 252 252 252 252 251 250 250 250 250 249 250 250 251 251 250 245 244 246 246 244 248 249 249 249 249 250 251 250 249 249 248 249 249 250 249 251 250 249 249 248 248 249 248 249 249 248 248 249 249 249 249 249 249 249 250 250 250 250 250 250 250 250 250 250 250 250 250
264 263 262 262 261 261 260 258 255 255 253 254 255 256 256 255 255 253 252 252 251 251 251 252 253 251 250 250 250 251 250 251 251 250 250 249 248 246 247 245 245 248 251 250 250 250 249 248 249 250 248 249 249 251 252 250 249 248 248 248 248 248 248 248 248 248 248 248 248 248 248 249 248 248 249 249 249 249 250 250 249 249 249 249 249 249 250
262 262 262 261 260 258 256 256 255 253 252 252 253 254 254 254 253 252 251 251 251 251 251 251 251 251 250 250 250 250 250 250 250 249 249 248 247 248 245 248 248 248 251 249 249 247 248 248 249 248 250 249 249 251 251 249 248 248 247 247 248 249 248 248 247 247 247 247 247 247 247 248 247 247 248 248 248 249 249 249 249 249 249 249 249 249 249
259 260 259 258 257 255 255 254 253 252 252 252 253 253 253 252 252 251 251 250 250 251 250 250 250 250 250 250 250 250 250 249 248 249 249 248 247 249 249 248 248 249 250 248 248 248 248 248 248 249 250 250 250 250 249 249 249 248 247 247 247 247 248 247 246 246 246 247 247 247 247 247 247 247 247 247 248 248 249 249 249 249 249 249 249 249 249
258 258 258 256 255 255 254 253 253 252 252 252 252 252 251 251 251 251 251 250 250 250 250 250 250 250 250 250 251 252 251 251 250 250 250 248 248 248 247 250 249 249 249 249 247 248 248 248 249 250 249 249 249 250 248 248 248 248 247 247 246 246 246 247 246 246 246 246 246 247 247 247 246 247 247 247 248 248 248 248 248 248 248 248 248 248 248
257 256 255 256 254 254 254 253 253 252 252 251 251 251 251 251 251 250 251 251 250 250 251 251 251 251 251 251 251 250 249 249 249 248 249 249 250 248 248 249 248 249 249 249 247 247 247 250 249 249 249 249 249 247 246 247 247 247 246 246 246 246 246 246 245 244 245 245 245 246 246 246 246 246 246 246 247 247 247 248 248 247 247 247 247 247 247
255 254 254 254 253 253 252 252 252 252 252 251 250 250 250 250 251 251 250 251 251 251 251 252 252 252 252 251 250 249 249 248 248 250 248 248 249 249 250 250 250 250 248 246 246 246 247 247 248 249 248 248 248 245 244 245 245 245 245 245 245 246 246 244 244 243 243 244 245 246 246 246 245 245 246 246 246 246 246 246 246 246 247 247 247 247 247
255 254 254 253 252 252 252 252 252 252 252 252 251 251 251 251 251 250 250 251 251 251 251 251 251 250 251 250 249 249 249 250 249 248 249 248 248 247 247 248 247 249 248 248 248 249 249 249 249 248 248 248 246 244 244 244 244 244 244 244 244 245 244 243 243 242 243 244 244 243 243 243 244 244 244 245 245 245 245 245 245 245 246 246 246 246 246
254 254 253 252 252 252 252 252 253 253 253 252 251 251 251 251 250 250 250 250 250 250 250 249 248 248 248 248 248 247 247 248 249 249 249 249 248 247 247 249 249 249 247 245 245 244 248 249 248 248 248 247 244 244 244 245 244 245 244 244 243 243 243 242 241 242 242 242 242 242 243 243 243 243 243 244 244 244 245 244 245 245 245 245 245 245 245
254 253 252 252 252 252 253 253 253 253 253 252 251 251 251 251 250 250 250 250 251 251 250 249 248 248 248 249 249 247 247 247 248 248 248 247 245 245 246 245 246 248 248 244 244 244 247 248 248 247 245 243 242 243 243 244 245 245 244 244 245 243 244 245 247 246 244 243 242 242 242 242 242 243 244 243 243 244 244 244 244 245 247 245 244 244 244
254 253 253 253 254 254 254 254 254 254 253 252 252 252 252 252 251 251 251 251 251 251 250 249 249 250 250 250 249 249 248 247 247 249 247 246 246 247 247 246 245 246 246 245 244 244 244 244 244 245 244 244 244 243 244 244 243 243 245 244 244 244 243 244 243 241 241 241 241 241 241 241 241 241 241 242 242 242 243 243 243 243 243 243 243 243 243
255 255 255 255 255 255 255 255 255 255 254 253 252 253 253 253 252 251 252 253 251 251 250 249 248 248 249 248 249 249 249 248 248 247 248 247 246 245 246 248 245 245 245 245 245 242 245 244 246 246 246 244 243 242 245 246 245 243 244 245 245 244 244 243 243 241 241 241 240 240 241 240 240 241 241 241 241 242 242 242 242 242 242 242 242 243 243
Wind_Speed
17 13 12 4 5 7 7 8 7 11 13 12 16 19 18 10 13 21 15 9 13 11 5 8 6 3 3 3 2 1 1 1 2 4 6 9 9 10 10 10 12 14 16 16 17 17 16 16 17 18 18 18 17 18 17 17 17 18 18 17 22 22 16 20 23 18 17 21 16 19 21 19 19 19 18 18 19 20 19 17 15 16 12 14 17 17 16
12 12 13 12 12 9 9 12 10 13 15 17 19 19 16 16 20 19 19 18 23 15 12 12 8 4 2 2 2 1 3 3 4 4 7 8 9 10 11 12 13 13 15 16 16 16 16 17 18 19 19 19 19 19 18 19 17 17 15 22 22 17 22 23 15 18 24 17 21 19 19 19 19 19 18 18 18 18 18 16 17 16 15 14 16 17 17
15 11 7 8 9 10 16 14 12 15 15 17 18 16 16 15 20 23 22 21 24 16 10 9 7 2 5 2 2 1 1 1 3 5 7 8 8 10 11 12 13 14 16 16 16 16 17 18 18 17 18 18 19 20 20 19 18 19 16 23 22 23 21 13 20 20 17 22 17 18 19 21 19 18 19 17 17 18 18 18 17 17 14 15 17 15 17
9 5 10 10 8 10 16 18 18 16 18 21 19 17 14 13 20 21 17 16 18 14 4 4 3 3 1 2 1 0 0 1 3 5 7 8 8 10 13 12 12 14 16 17 17 17 18 18 19 17 18 20 20 21 19 19 19 20 23 21 22 21 19 22 15 20 22 17 18 19 18 18 19 18 17 17 18 18 17 18 17 15 17 15 14 15 15
9 1 3 1 4 9 14 24 21 20 23 21 16 14 15 20 19 15 15 19 13 9 3 5 4 1 1 2 1 0 1 2 2 3 5 6 8 12 12 11 12 14 15 16 17 17 17 17 18 19 18 19 19 20 23 22 19 22 18 19 21 23 21 19 20 17 14 19 20 20 18 18 17 17 17 17 17 17 17 17 16 16 16 15 15 14 15
1 4 4 2 1 9 19 1 11 19 22 22 22 20 20 20 14 14 12 13 10 7 5 6 4 1 1 2 1 2 1 3 4 2 2 4 8 11 11 11 11 12 13 14 15 15 16 17 17 17 16 16 18 19 16 18 22 21 21 20 20 19 22 22 21 22 21 20 19 19 18 18 18 18 18 17 16 17 17 17 17 17 15 16 15 14 15
3 4 3 0 9 20 2 2 2 8 15 17 18 19 19 14 14 14 14 14 11 9 7 5 2 3 4 3 1 0 2 1 1 1 3 6 8 10 11 12 12 12 14 16 16 17 16 17 16 16 17 17 19 19 18 23 21 18 22 24 22 22 20 15 16 17 19 22 22 21 19 18 18 18 18 18 17 16 16 16 16 16 14 15 14 15 16
3 3 5 4 13 2 3 4 1 2 1 4 7 13 12 11 13 13 16 15 10 7 5 2 5 6 4 3 2 0 3 6 4 1 5 6 6 8 8 10 11 12 14 15 16 17 16 16 17 15 16 17 18 20 19 15 15 17 17 16 18 18 22 22 18 18 19 21 20 22 21 19 17 18 18 17 17 15 16 15 15 15 14 13 13 14 15
8 7 11 16 13 22 24 9 7 9 7 7 11 12 12 11 9 10 10 9 6 4 3 7 5 6 5 4 6 5 7 4 2 1 3 5 6 6 7 7 10 10 11 12 15 16 17 17 16 16 17 18 19 20 20 19 19 20 18 19 19 19 19 19 21 20 20 21 22 22 21 20 19 17 17 17 15 13 14 15 15 16 15 12 13 13 15
7 4 8 6 6 12 11 3 5 12 12 5 1 3 12 7 10 11 10 10 8 3 6 6 6 5 5 3 1 3 3 5 3 1 3 4 4 5 6 6 8 9 10 11 12 13 17 17 15 15 16 18 19 18 18 19 20 20 18 19 20 19 20 20 20 23 24 23 22 22 20 19 20 19 16 14 14 13 14 14 16 15 13 12 12 12 14
5 5 8 9 9 17 5 1 3 5 9 9 3 2 14 6 13 13 9 10 5 6 6 4 6 4 2 5 4 7 5 2 1 2 3 3 4 5 6 8 9 9 10 12 14 15 16 17 16 15 17 18 16 18 18 17 17 18 19 20 21 23 22 21 20 18 18 20 21 22 22 21 18 18 17 15 13 12 13 13 14 15 16 13 12 12 12
9 7 8 14 9 11 3 7 3 7 7 8 4 3 9 1 11 7 9 9 8 7 6 6 6 8 7 7 5 4 3 2 1 1 2 3 4 5 6 5 6 9 10 10 12 15 17 17 16 16 15 16 18 16 17 19 19 19 20 22 22 21 22 20 18 18 18 20 21 20 21 20 18 16 14 13 13 12 13 12 13 13 13 13 15 14 15
12 14 10 8 12 8 8 9 7 7 6 6 3 15 6 1 5 6 9 9 9 8 7 7 7 8 7 5 5 3 3 2 1 1 1 3 3 6 6 7 8 7 8 9 11 13 14 15 16 15 15 16 17 18 18 17 18 20 23 21 22 23 21 20 19 18 18 18 21 21 19 18 16 15 12 12 12 11 12 12 13 14 15 15 15 16 16
14 12 12 14 14 8 10 9 14 8 8 5 14 2 6 6 6 7 10 10 8 8 9 8 8 7 3 3 3 2 1 1 2 2 1 3 4 4 4 8 9 10 10 11 11 13 12 13 14 14 15 16 17 15 16 17 19 20 20 21 21 21 21 21 20 19 19 19 18 17 16 17 16 13 13 12 12 12 11 12 15 16 16 13 14 15 12
2 7 10 5 14 5 22 13 6 5 9 8 3 3 4 10 11 10 7 10 6 9 7 6 6 5 3 3 2 2 2 1 2 3 3 4 6 8 9 8 7 9 12 13 12 13 14 14 14 14 16 17 18 18 17 20 21 20 20 20 21 21 21 22 20 19 18 19 17 13 14 16 17 15 13 11 12 12 13 14 15 17 15 15 14 14 13
9 13 14 15 8 9 17 18 13 12 16 5 6 7 6 2 7 8 7 7 8 8 9 7 6 5 4 2 3 3 2 2 1 2 2 3 5 6 5 6 10 10 11 12 13 12 13 12 13 13 14 17 18 20 21 18 20 20 21 19 20 21 20 20 19 16 17 16 14 16 17 17 18 17 14 12 11 10 11 12 13 13 12 11 11 12 12
13 14 15 5 7 12 14 15 6 11 14 9 8 7 9 10 7 6 8 8 8 9 9 7 7 4 5 5 5 4 3 1 1 2 3 5 6 6 8 9 9 8 11 15 16 15 13 14 13 12 12 15 20 21 20 20 21 21 21 21 21 21 19 19 18 16 15 15 16 15 16 15 16 16 17 15 12 10 10 11 11 11 11 10 11 11 11
9 9 1 5 5 10 13 11 5 8 10 6 6 7 7 7 8 9 10 9 10 8 8 9 5 7 6 6 4 3 1 0 1 1 2 3 3 5 7 8 9 9 10 11 12 16 17 14 13 11 11 12 17 20 20 20 20 20 20 22 22 23 21 18 17 17 19 18 15 16 17 14 14 14 15 15 14 13 12 12 12 12 11 11 11 11 11
9 12 9 9 8 9 13 14 6 1 3 6 6 7 7 7 8 7 7 11 11 11 10 9 8 7 6 5 3 3 1 0 0 1 2 3 4 6 7 8 9 9 10 12 14 15 18 16 13 13 13 12 13 15 18 19 19 20 21 21 21 20 21 16 15 17 19 16 18 16 15 14 12 13 13 13 14 14 14 13 13 13 12 11 11 11 10
15 5 1 11 12 11 10 10 10 7 5 4 5 3 4 6 5 6 6 8 7 8 8 8 7 6 6 6 4 3 2 1 0 1 1 3 5 5 6 7 7 7 8 10 13 15 16 16 15 15 14 15 15 16 16 18 19 20 19 19 20 20 20 15 14 16 17 23 21 14 14 14 15 15 13 13 13 14 14 15 15 15 14 12 12 10 8
11 4 3 4 1 2 7 10 10 10 10 8 5 7 8 8 9 6 4 4 8 10 8 7 7 6 6 5 5 4 2 1 1 0 1 2 4 6 7 6 6 8 8 10 11 13 14 14 15 15 15 15 15 17 17 17 19 20 19 21 19 19 17 15 14 16 16 16 16 16 15 15 14 14 15 15 15 14 15 13 15 16 14 12 11 9 9
12 16 14 10 6 6 7 11 13 11 9 9 8 7 8 8 9 8 9 4 4 4 5 8 8 9 6 5 5 5 3 2 1 0 1 2 4 5 5 5 6 7 8 8 11 13 13 13 14 15 16 15 14 15 16 16 18 18 19 18 18 17 16 15 15 16 16 15 17 16 16 17 18 16 17 21 17 14 15 23 29 27 22 13 13 10 10
16 15 9 13 12 9 8 10 10 8 6 10 11 11 10 9 10 12 12 9 5 5 3 3 8 7 8 7 5 5 3 2 1 0 0 2 3 5 5 5 6 7 8 9 9 11 12 12 13 14 15 15 15 15 16 16 16 17 17 14 14 14 15 14 17 17 16 16 16 16 16 16 16 17 18 18 22 25 25 27 28 29 28 28 28 26 19
5 4 8 8 9 10 6 7 10 10 9 12 12 10 10 11 12 11 11 12 13 9 6 4 4 8 6 6 6 5 3 2 1 0 1 2 3 3 4 5 7 8 9 9 10 12 12 12 13 13 14 14 14 15 16 16 16 15 16 14 13 14 14 14 16 16 15 16 16 17 16 16 16 16 17 18 20 24 29 29 30 29 28 30 31 29 28
7 4 5 7 7 5 3 4 5 6 8 11 10 10 11 9 8 10 10 7 5 12 11 8 6 6 7 6 6 6 5 3 2 0 1 2 4 4 4 5 6 7 8 8 9 9 10 12 13 13 13 13 14 15 16 16 16 16 16 15 16 16 14 16 16 17 16 15 15 15 16 17 17 16 16 16 18 20 24 30 29 26 28 31 33 30 29
4 4 4 4 4 5 5 6 2 4 5 5 5 3 4 7 10 8 7 7 6 6 9 10 9 7 7 7 6 5 4 3 2 1 0 1 2 3 4 5 7 7 8 8 8 9 10 12 12 12 13 14 15 16 15 15 15 15 15 15 14 12 15 17 16 15 15 15 15 15 15 15 16 16 15 15 15 17 17 19 23 27 31 32 32 31 30
4 8 9 6 4 3 3 9 7 7 5 4 7 8 8 9 9 8 8 7 6 6 7 8 8 8 6 4 5 5 6 4 2 1 0 1 2 3 4 4 6 7 8 8 7 9 12 12 11 12 13 13 14 14 15 16 16 15 14 15 13 15 21 18 12 13 14 15 14 14 15 15 15 15 15 16 15 15 14 16 16 16 16 18 23 30 24
7 8 11 12 8 8 8 7 4 9 8 8 10 11 9 9 10 10 9 9 7 6 6 6 9 9 8 6 5 4 4 3 3 1 1 1 2 3 4 5 6 7 7 6 7 9 9 9 10 11 12 13 14 14 15 16 15 14 14 14 13 11 11 14 13 13 13 14 13 13 14 13 13 13 13 14 14 13 14 14 14 15 16 14 11 16 28
7 8 6 5 4 3 5 6 7 7 6 4 7 9 11 11 7 9 8 9 9 9 7 6 5 6 7 6 5 6 5 4 3 2 1 1 2 3 4 5 6 6 5 6 7 8 9 9 10 11 12 12 14 14 14 15 13 13 13 13 13 12 12 13 13 13 13 13 11 14 14 13 13 13 12 13 13 13 13 12 14 15 13 14 15 18 22
7 5 5 4 9 9 9 6 8 8 9 9 11 8 8 11 10 8 9 9 9 10 8 8 8 7 6 5 5 5 6 5 4 2 0 1 1 2 3 5 4 4 5 7 9 9 9 10 10 11 12 13 14 14 14 13 12 13 13 13 13 12 12 15 13 12 13 12 13 17 13 12 12 11 11 12 13 13 13 14 15 14 14 14 14 13 19
5 4 7 6 7 7 9 9 8 9 9 8 9 10 6 5 7 8 9 8 7 7 9 10 9 8 7 6 5 5 5 5 3 1 0 0 1 2 3 3 5 6 7 7 8 8 8 9 8 9 11 12 12 13 13 12 12 12 11 11 9 17 24 24 18 14 11 12 13 13 12 12 12 13 14 13 13 13 13 13 13 15 14 12 11 12 17
9 7 7 5 5 7 5 5 8 9 9 9 9 10 13 13 12 13 10 11 11 10 10 10 10 9 8 7 6 6 5 4 3 1 1 1 0 1 2 3 3 4 4 5 5 7 7 8 9 10 11 11 11 12 12 12 11 11 11 11 10 10 15 25 14 15 13 12 12 12 13 13 13 13 12 14 14 14 13 14 15 15 13 13 13 12 16
9 5 2 3 2 2 5 6 10 10 11 13 15 14 11 10 7 7 9 9 9 9 10 10 8 9 9 8 7 6 5 5 3 3 2 0 1 2 2 2 2 4 4 4 3 4 5 7 8 9 10 10 10 11 11 11 10 10 10 11 10 10 11 14 17 13 12 12 11 13 13 13 12 12 13 13 13 13 12 13 13 14 14 15 16 14 17
16 15 15 14 16 14 14 14 11 10 9 9 7 6 7 8 6 6 8 9 10 10 11 10 10 10 9 8 7 7 6 5 4 4 2 0 1 2 2 3 3 4 4 3 3 5 5 6 7 8 10 10 9 9 10 11 10 9 10 10 10 10 11 10 12 11 10 12 11 14 13 13 13 14 14 13 12 13 14 14 14 14 13 12 14 13 19
16 14 13 14 13 13 12 13 13 13 12 12 9 8 8 7 8 8 9 11 13 11 10 11 11 10 9 9 8 7 6 6 6 4 2 0 0 1 1 2 3 3 3 1 4 6 6 6 6 9 9 8 8 9 10 10 10 9 10 10 10 9 9 9 10 11 10 11 11 12 13 13 14 13 14 14 13 13 13 13 14 14 12 12 12 12 14
12 11 9 7 9 10 10 10 12 14 14 14 14 13 12 12 11 10 12 10 8 11 12 12 11 11 10 9 9 8 7 6 6 4 3 1 0 1 2 2 2 2 2 2 3 5 7 6 11 15 9 8 8 9 10 11 9 9 9 9 9 9 9 9 9 9 9 10 11 11 10 12 13 13 14 12 12 12 12 12 13 12 11 11 11 12 12
12 13 11 10 9 10 10 10 10 12 12 12 11 10 10 10 12 8 8 10 11 12 12 12 11 11 10 8 7 6 6 5 5 4 3 1 0 1 1 1 3 2 4 5 6 6 7 6 12 15 8 6 7 8 11 17 10 9 8 9 9 9 9 9 9 10 10 10 10 10 11 10 10 10 12 11 12 11 11 11 11 11 11 11 11 11 12
11 13 12 10 9 9 11 9 8 11 10 9 7 8 13 12 11 11 11 11 11 11 11 10 11 10 10 8 7 7 7 5 5 4 3 2 1 1 0 2 2 2 3 1 5 6 6 8 12 8 6 6 7 7 11 17 15 9 8 8 8 8 9 9 9 9 9 9 9 10 11 10 11 11 11 11 10 11 11 11 11 10 10 10 10 11 11
6 5 5 5 6 8 8 5 6 9 13 15 10 8 8 11 11 12 12 11 10 11 11 11 11 11 10 10 8 6 6 6 5 4 4 2 2 3 3 3 1 0 1 3 3 5 5 6 7 6 6 7 7 7 9 13 15 8 7 7 8 8 8 8 9 9 9 8 8 9 10 9 10 10 10 10 10 10 10 12 12 10 10 10 10 10 11
9 9 9 9 8 8 8 7 6 6 5 9 15 14 13 14 13 13 12 12 9 10 11 12 12 11 10 9 10 8 7 6 6 5 5 3 2 2 1 2 2 1 1 4 3 3 4 8 6 4 5 6 6 6 7 10 11 7 7 7 7 7 7 8 8 9 10 10 10 10 8 9 8 9 8 9 9 9 8 9 10 10 10 10 10 10 11
9 8 7 8 8 8 9 10 8 5 7 7 8 11 13 15 14 14 14 14 11 10 10 11 11 10 10 11 10 9 8 6 6 5 5 3 3 4 5 2 0 1 1 2 2 2 3 4 4 4 5 6 5 8 7 9 7 6 6 6 6 7 7 8 8 8 9 10 9 10 9 8 8 8 8 8 9 9 9 8 8 9 8 9 10 10 10
7 8 9 8 9 9 8 9 10 10 7 6 9 10 11 12 15 16 14 12 12 10 10 8 7 11 10 9 8 8 7 6 6 5 4 4 4 5 5 3 1 1 3 3 3 3 1 1 2 3 4 6 5 11 12 7 5 5 6 6 6 6 6 7 7 7 7 7 7 8 9 9 9 8 8 7 7 8 7 8 8 8 8 8 8 8 9
10 11 10 10 9 9 11 10 10 12 11 8 8 10 12 11 12 13 13 12 13 12 10 9 9 9 9 9 9 8 7 6 6 5 4 3 1 2 4 2 2 0 3 2 3 3 2 1 1 1 6 7 7 12 11 5 5 5 5 5 6 5 6 6 6 6 7 7 8 8 8 9 9 9 9 8 8 7 7 8 8 8 8 8 7 8 8
7 8 9 10 10 9 11 11 11 12 13 10 8 10 11 11 11 14 14 14 12 11 12 11 10 9 9 8 8 7 7 7 6 6 6 4 2 1 4 2 0 1 1 1 2 3 2 1 1 5 7 9 10 11 6 4 5 5 5 5 5 5 6 6 6 6 6 6 6 7 7 8 8 8 8 8 8 8 8 8 8 8 8 8 7 7 7
8 8 10 11 12 11 11 11 13 13 11 12 11 10 10 11 11 11 12 13 13 11 10 10 10 9 9 7 6 5 6 6 7 7 7 5 4 3 3 3 1 1 1 3 2 2 2 1 3 6 6 8 9 9 4 4 4 5 5 5 5 5 5 5 6 5 5 5 5 6 6 6 6 7 7 7 8 8 8 9 9 9 9 9 9 9 9
9 9 11 12 12 10 9 11 11 13 15 14 13 9 8 9 10 9 8 11 12 10 9 9 8 8 9 8 6 7 6 6 4 3 3 3 5 4 5 4 1 2 2 2 2 2 2 4 5 6 7 8 8 4 2 4 4 4 4 5 5 5 4 4 5 5 5 5 5 5 6 5 6 6 6 7 8 7 8 9 8 8 8 8 8 8 8
10 10 10 11 11 11 13 13 13 15 15 14 13 11 8 8 9 8 7 8 9 9 8 7 7 7 7 8 9 9 8 6 3 3 3 5 7 6 4 4 3 3 1 1 2 3 3 2 3 6 7 7 7 3 2 3 3 4 4 4 4 4 4 4 4 4 5 5 5 5 6 6 6 5 6 6 6 7 7 8 7 8 8 8 8 8 9
11 11 10 12 14 14 14 14 14 13 12 11 12 11 11 9 9 9 8 9 9 8 7 6 7 6 7 5 3 2 5 9 9 3 5 5 5 4 3 2 2 1 2 2 3 3 4 3 3 5 6 7 4 3 3 3 3 4 4 3 2 4 4 4 5 5 5 5 5 5 5 5 5 5 5 5 5 5 5 6 6 7 6 7 8 8 8
9 11 11 12 13 14 14 13 12 11 9 10 12 11 11 11 11 10 9 9 9 8 7 6 7 6 4 4 3 4 3 2 3 6 5 6 5 4 3 2 1 1 1 1 1 2 3 4 3 5 5 5 3 3 3 3 3 3 2 3 3 4 4 4 4 5 5 5 5 5 5 5 5 5 5 6 5 5 5 6 5 6 6 6 6 7 7
11 11 11 10 11 11 11 10 9 9 10 11 11 11 11 11 11 8 7 8 8 7 7 6 5 5 5 4 5 4 5 6 7 8 7 6 4 3 1 1 0 3 3 2 2 3 3 3 3 3 2 2 3 3 4 4 3 4 4 4 4 3 4 4 4 5 4 4 5 5 5 5 5 5 5 5 5 5 5 5 5 6 10 7 5 6 6
9 9 8 8 7 7 5 6 9 10 10 11 11 11 11 9 9 8 8 9 9 8 7 6 5 5 5 5 4 4 5 5 5 6 6 5 3 3 3 2 1 2 2 2 2 4 2 1 1 0 1 2 3 3 3 3 3 4 5 4 4 4 4 4 3 3 3 3 4 4 5 5 5 5 5 4 5 5 5 5 5 5 5 5 5 5 5
8 8 9 9 8 8 8 9 9 9 9 10 11 10 9 8 9 8 6 6 8 8 9 9 7 4 5 5 5 5 4 5 5 4 4 3 3 2 2 3 2 3 4 4 4 2 2 1 2 2 2 2 3 3 4 6 5 4 5 5 4 5 4 5 5 4 4 3 4 4 5 5 5 6 6 5 5 5 5 5 5 5 5 5 5 5 5
Wind_Direction
255 256 265 208 209 230 232 226 198 214 219 217 218 227 237 229 230 251 260 249 249 251 249 260 263 292 295 108 104 141 254 338 360 349 343 331 321 317 316 319 322 319 318 318 318 319 319 320 322 321 320 318 317 314 316 316 316 316 312 308 312 307 303 305 306 302 302 301 293 295 292 290 289 290 289 288 288 290 289 287 285 284 284 284 283 281 278
256 252 252 259 257 256 250 235 223 232 231 232 232 236 234 229 246 254 265 266 263 266 263 271 277 291 131 133 148 85 24 351 358 346 328 321 315 314 316 320 321 317 315 315 316 319 321 323 323 322 320 319 318 317 318 318 317 317 315 307 302 302 307 304 296 305 307 300 298 293 292 288 288 287 285 284 282 281 280 278 278 278 279 275 274 275 275
257 248 250 260 265 269 267 259 244 239 246 248 242 242 239 237 250 252 255 262 269 263 259 272 282 213 144 137 87 46 342 39 347 327 318 313 309 312 317 321 320 315 313 315 318 321 323 323 322 322 319 318 318 317 318 319 318 316 316 312 305 303 300 297 304 299 302 302 293 294 293 291 289 285 283 282 280 278 277 274 272 276 272 268 273 272 271
266 199 210 241 259 267 268 266 246 239 239 245 239 233 227 221 238 246 254 258 257 264 252 260 204 150 150 134 121 67 83 26 340 318 313 307 309 317 318 318 316 315 317 320 321 324 324 323 323 324 323 320 318 316 317 319 315 313 309 303 300 295 297 298 298 307 304 300 297 296 295 291 288 287 283 281 277 274 273 271 266 264 268 266 265 268 268
254 42 163 74 358 312 283 251 237 223 233 234 240 240 230 228 233 243 239 242 247 263 243 234 229 163 131 98 119 138 359 307 305 296 290 303 315 314 314 315 316 316 318 318 320 323 324 323 322 322 322 317 315 315 318 315 315 312 304 303 304 304 301 303 302 302 297 299 298 298 298 296 291 286 282 279 278 278 276 275 269 260 261 262 261 261 263
142 100 70 157 38 270 251 61 181 201 219 226 233 236 233 233 217 234 238 249 252 253 240 236 232 163 147 135 150 136 164 293 304 330 335 311 310 309 311 314 314 315 315 316 317 319 318 316 316 315 313 311 309 311 306 311 314 310 309 303 302 297 301 300 304 306 307 303 296 294 293 292 290 288 285 280 279 280 280 279 274 267 259 257 260 259 260
215 118 137 51 242 252 37 221 254 208 210 215 223 236 238 235 232 239 244 243 236 228 214 206 161 116 101 84 84 58 311 304 62 51 317 311 310 310 312 316 319 319 318 317 318 320 321 318 317 317 316 318 317 313 316 315 308 303 306 307 308 308 304 298 298 300 301 300 295 293 292 289 288 284 281 279 276 275 274 273 272 265 257 256 255 255 256
20 139 188 233 239 5 262 291 221 35 187 230 232 263 248 229 231 226 236 239 231 227 224 113 107 104 83 44 335 346 98 112 111 357 293 300 303 304 310 313 317 321 322 320 320 320 318 316 317 318 316 319 318 315 310 300 300 303 302 298 294 296 304 307 308 307 305 301 298 295 293 290 285 283 279 274 273 270 271 269 271 270 260 257 258 258 259
196 216 198 237 321 321 279 217 211 179 184 184 191 239 244 206 215 221 226 237 225 213 137 107 90 75 59 18 331 88 120 99 103 195 263 285 298 301 308 318 313 316 313 316 318 317 315 316 317 318 319 320 315 312 310 308 304 298 296 298 308 312 310 306 304 302 303 302 297 294 293 291 288 285 282 278 274 270 269 268 265 266 267 258 258 260 261
142 178 258 278 277 261 283 140 193 190 202 173 134 259 271 168 209 216 216 228 221 173 113 113 105 88 54 329 307 165 133 140 181 243 282 284 299 311 314 315 311 310 314 314 313 314 312 312 314 317 319 317 313 307 304 304 309 312 309 306 305 303 305 305 307 306 301 298 296 294 291 287 286 282 276 275 273 271 269 272 275 273 257 253 252 252 256
138 182 210 228 235 248 135 298 122 146 116 119 106 359 273 179 203 207 190 206 186 159 147 141 105 86 221 231 189 179 177 154 78 305 272 291 304 315 318 317 315 318 321 321 317 314 311 310 317 319 316 313 311 308 307 306 303 303 309 311 314 313 311 311 307 304 301 300 299 296 291 284 279 278 274 271 268 266 264 266 266 266 266 265 266 263 261
214 206 218 242 220 260 120 130 118 119 118 101 80 321 279 202 183 172 166 179 162 155 151 148 142 160 205 227 211 154 128 104 124 227 291 301 305 309 308 312 316 321 322 317 316 313 315 314 318 318 318 315 312 309 310 312 313 315 314 315 311 305 304 305 305 303 300 297 291 285 282 282 278 270 265 267 262 260 259 259 263 268 270 268 264 262 260
219 213 246 289 271 231 153 145 141 118 104 97 133 238 198 210 139 168 153 157 160 158 170 156 175 214 192 163 151 115 95 59 290 286 300 303 317 313 319 321 331 323 318 315 308 308 306 313 318 318 320 318 316 315 314 319 315 312 312 311 311 311 307 306 305 300 293 287 286 284 278 272 269 267 263 256 256 252 255 258 257 253 251 256 260 262 259
213 214 226 240 271 249 136 167 147 144 93 205 224 242 148 151 147 157 153 159 172 163 179 183 195 195 163 103 90 102 111 187 246 252 274 304 303 305 320 329 337 327 323 314 310 310 311 314 317 318 320 318 315 315 316 313 315 317 315 315 311 307 308 305 303 302 297 290 283 279 278 281 280 267 258 248 242 243 245 248 254 258 260 259 261 264 263
107 210 235 271 261 229 152 142 122 182 171 240 146 124 165 158 166 161 172 162 180 157 188 183 179 173 154 132 148 152 151 160 257 300 328 321 322 328 332 334 339 333 320 318 319 317 317 322 322 324 323 319 320 321 319 317 319 318 317 314 314 313 309 305 301 296 291 287 290 294 292 287 286 277 273 262 251 243 243 246 251 255 252 252 257 264 268
162 193 199 214 223 109 155 148 181 198 214 165 138 135 183 200 160 166 164 175 171 168 170 174 178 173 161 191 166 162 160 179 259 302 317 322 329 326 329 333 328 329 317 312 313 317 318 322 322 324 325 322 324 323 320 322 321 319 317 317 316 311 305 302 298 298 293 294 307 316 313 314 311 303 290 276 270 267 257 255 258 255 252 252 256 261 261
176 197 220 208 132 163 170 184 192 189 206 200 175 164 171 168 198 168 162 172 167 164 158 169 168 174 199 189 171 162 182 166 283 321 331 340 331 331 330 331 328 324 320 320 319 318 322 324 326 326 328 326 324 324 325 327 325 324 321 318 317 313 309 303 299 297 302 315 321 317 319 316 316 317 313 308 295 287 279 272 259 251 256 258 256 259 263
230 272 300 114 127 160 186 202 190 188 210 208 167 168 165 190 172 166 164 162 158 154 152 149 189 188 183 172 155 136 138 140 316 348 345 331 333 334 325 322 326 323 319 316 318 319 321 327 327 329 331 332 328 325 326 326 325 324 321 320 317 315 313 307 300 309 319 322 323 323 321 317 313 314 314 313 310 304 303 294 285 276 272 268 261 259 258
150 250 166 174 175 184 192 198 198 143 178 195 185 186 180 163 162 162 157 157 160 160 159 171 174 181 167 162 157 137 140 176 300 356 320 323 334 329 322 318 320 325 327 326 326 326 322 328 332 332 332 333 327 325 327 326 325 324 323 318 316 317 318 302 307 323 326 327 327 324 322 319 313 318 315 313 312 312 310 308 304 295 286 278 275 268 257
205 232 229 189 178 194 187 186 207 221 214 187 194 174 143 136 134 134 141 127 129 136 162 180 166 169 157 157 168 154 155 170 164 286 326 328 324 317 311 310 317 318 321 324 323 326 325 326 332 332 334 333 333 331 330 330 326 324 322 321 320 317 310 305 318 327 327 327 327 324 327 327 327 325 322 319 318 317 316 316 314 305 291 287 287 281 280
233 236 195 124 67 209 185 194 208 206 205 190 153 132 127 129 128 119 117 127 157 163 172 162 159 155 173 157 158 155 166 170 187 127 356 321 307 308 308 314 323 326 325 322 321 322 321 325 329 331 332 333 334 336 336 332 331 327 324 322 320 317 314 320 323 330 330 329 329 327 324 325 323 323 323 326 324 318 317 314 316 321 308 288 277 273 276
212 218 203 156 175 222 197 201 205 211 205 172 149 132 135 149 146 152 145 127 123 142 156 160 159 164 163 153 145 160 168 165 157 65 326 317 299 296 300 312 320 319 318 320 324 326 324 328 330 331 332 334 335 337 335 333 332 330 324 321 324 325 325 324 326 332 333 331 330 329 329 330 331 326 326 325 324 324 323 327 330 337 358 355 350 323 282
221 225 195 199 220 222 202 194 209 202 169 147 154 171 176 183 170 161 149 143 144 155 146 140 148 152 155 164 153 149 151 150 122 123 6 303 298 296 310 319 317 321 322 329 327 326 326 330 331 331 331 333 335 338 336 334 332 330 327 321 323 324 326 328 331 334 331 331 332 330 332 332 332 331 330 329 331 333 336 338 340 342 352 0 4 5 6
243 126 177 187 197 215 206 193 189 192 167 159 174 186 181 177 170 167 168 171 165 170 156 142 140 146 146 149 145 155 152 138 130 110 303 295 289 300 323 322 320 323 330 337 338 331 330 332 331 331 330 333 337 337 336 334 334 330 329 329 327 323 318 323 331 334 332 330 328 332 334 336 336 339 339 334 330 334 339 342 344 349 356 4 6 7 6
207 160 159 190 184 181 146 149 154 154 161 157 167 180 176 162 163 162 165 167 164 155 157 156 147 143 145 149 146 153 151 140 139 240 318 312 313 337 324 323 324 331 333 333 330 328 330 332 330 332 331 333 337 337 336 335 334 331 331 332 331 326 323 332 333 334 335 333 334 333 338 341 342 342 344 344 339 335 336 337 343 353 360 4 7 6 6
137 130 105 96 100 118 125 79 58 144 165 148 112 96 118 141 144 143 148 140 135 140 143 148 149 150 146 152 146 140 130 145 161 99 286 303 333 327 327 326 329 327 329 328 328 331 334 333 331 331 333 333 338 336 335 334 333 331 330 330 329 322 333 332 334 335 336 334 333 336 340 345 342 342 343 341 342 339 339 339 346 349 353 356 1 4 5
152 142 115 85 98 150 208 158 186 188 159 125 127 129 123 119 119 105 93 91 103 115 128 140 136 131 124 135 135 142 139 132 105 112 96 1 334 322 319 329 331 327 326 326 331 339 337 333 332 334 333 334 335 334 334 335 333 333 334 334 331 324 326 332 333 337 336 333 335 338 344 347 344 344 344 347 343 344 346 351 350 343 336 336 350 0 8
172 168 168 184 187 178 211 218 138 147 158 147 141 134 133 119 117 117 117 117 118 113 109 125 134 136 138 147 144 145 122 112 123 103 68 351 331 320 334 332 331 327 323 328 341 339 336 335 335 333 333 336 335 335 335 337 335 337 338 339 336 324 323 329 339 343 338 336 334 343 348 346 344 340 347 344 344 347 353 352 350 341 343 333 331 342 7
198 196 195 196 178 136 103 102 105 124 123 110 116 126 136 132 144 145 152 153 144 141 144 145 132 140 145 150 147 141 132 133 125 109 58 321 325 339 334 334 329 321 323 337 341 342 341 340 338 336 335 338 336 335 336 338 339 340 341 340 342 339 338 340 344 341 342 337 334 347 346 345 339 340 339 338 344 357 357 350 1 355 345 326 348 358 6
201 180 170 146 117 132 125 138 154 156 152 151 144 160 170 146 154 181 167 157 159 166 163 145 143 151 146 143 147 143 143 136 115 117 225 304 344 338 343 333 330 332 352 356 350 342 342 340 339 339 338 337 335 334 338 339 338 338 337 340 344 342 343 346 344 346 350 344 342 344 342 346 342 341 339 349 352 353 349 357 4 355 351 348 354 14 13
181 150 154 133 143 155 171 180 160 160 156 164 162 155 176 178 173 168 176 163 158 161 155 156 156 149 150 154 139 125 115 117 120 138 162 252 17 345 350 345 13 358 346 332 327 339 341 338 336 338 335 333 333 337 340 340 339 338 341 341 332 343 350 354 358 355 347 347 343 347 344 346 348 350 354 355 353 356 358 353 358 2 357 352 355 8 22
108 91 94 121 151 171 166 141 145 167 170 165 156 184 182 176 191 193 175 176 183 165 150 149 157 160 151 140 132 125 125 120 117 136 200 167 14 347 351 350 343 340 318 315 325 349 341 337 338 337 333 333 334 341 342 341 341 345 345 344 340 340 346 358 357 354 345 343 345 349 349 353 354 353 354 0 357 358 358 359 3 3 0 359 1 4 20
136 124 168 143 98 155 198 196 174 186 173 180 199 199 193 199 189 177 175 159 138 154 156 157 148 142 140 136 134 132 123 126 136 176 163 107 319 354 351 340 332 314 305 309 327 350 335 333 329 327 332 332 340 343 344 343 346 343 343 345 345 342 347 354 357 356 351 351 351 1 352 356 353 358 0 359 358 1 4 4 2 2 11 14 15 1 23
184 197 196 187 183 187 199 212 203 193 199 207 200 183 183 185 174 156 151 150 150 153 160 152 144 138 137 137 134 128 130 134 156 160 153 208 338 3 335 325 308 301 296 289 2 352 339 331 328 334 333 335 343 346 343 346 348 345 344 344 345 348 351 349 351 354 352 356 354 2 6 1 3 2 357 355 357 6 6 7 7 7 7 6 13 351 14
195 202 200 200 198 197 191 186 184 193 188 192 195 198 189 174 170 169 157 157 166 161 141 133 136 138 135 134 133 138 144 150 148 143 164 149 93 327 324 325 329 334 327 337 42 353 339 322 332 337 336 337 345 347 345 346 351 347 347 347 347 349 348 347 355 1 0 359 351 359 8 10 6 3 360 360 1 1 2 7 9 7 360 358 352 0 4
192 202 205 197 189 189 186 185 184 185 184 189 191 185 183 182 171 162 166 164 134 129 136 138 138 136 136 141 144 150 152 147 148 149 157 132 10 340 332 332 9 350 343 336 30 360 337 334 346 348 344 345 346 347 346 351 350 353 348 349 349 349 351 356 355 359 2 5 5 2 2 7 12 11 8 360 357 359 3 4 9 5 357 355 349 355 352
190 194 199 195 186 181 187 185 175 171 179 182 177 174 175 172 172 159 130 127 137 141 140 140 139 144 148 148 136 130 126 135 146 148 147 128 117 7 302 351 15 17 2 15 337 346 334 337 344 347 345 346 343 346 344 354 359 353 350 352 352 354 354 358 0 5 4 8 11 6 4 4 11 13 14 4 360 358 5 3 5 3 357 354 354 355 357
194 195 195 192 181 178 186 183 166 163 157 154 164 172 173 161 151 143 145 139 139 141 141 143 141 134 127 121 121 131 141 138 144 143 145 146 153 118 348 98 27 28 18 302 311 330 319 337 344 339 344 351 345 344 343 350 0 357 354 354 353 352 357 358 357 0 3 5 5 11 11 10 12 13 13 6 360 3 4 6 4 3 354 354 352 360 6
197 176 167 155 141 146 126 123 142 156 162 162 154 137 137 136 134 131 133 138 137 139 137 132 127 126 130 134 137 137 147 155 157 151 157 159 177 153 172 159 164 150 210 261 306 310 318 338 341 336 349 343 339 339 342 345 358 360 352 352 350 356 358 360 358 354 356 353 2 9 6 2 8 3 2 3 360 1 6 10 6 0 359 356 355 359 4
180 174 170 149 149 147 139 143 141 141 143 148 148 148 147 137 140 135 133 131 141 145 139 136 137 138 145 147 149 156 166 158 161 155 164 157 165 188 195 139 147 88 312 340 324 308 328 346 338 333 346 335 338 339 340 342 355 354 355 352 353 355 359 359 358 1 357 357 358 359 1 6 4 359 357 357 355 358 354 356 360 1 359 359 2 1 3
170 149 143 147 144 146 147 142 131 110 113 122 125 133 144 143 140 137 146 145 144 143 142 143 138 140 153 156 153 149 146 152 154 158 148 139 160 177 142 185 166 97 345 331 308 310 336 352 339 348 347 336 329 341 336 341 353 354 353 351 352 357 359 1 2 0 356 356 356 359 356 350 350 2 360 359 0 357 356 358 358 357 351 360 4 360 0
146 135 136 134 139 142 131 125 120 108 88 97 119 130 134 141 145 145 140 135 136 141 137 138 139 144 144 137 134 133 139 147 147 152 166 175 177 156 122 191 192 125 344 336 322 316 312 325 344 356 348 339 326 334 335 336 343 349 353 353 351 354 360 2 1 358 355 352 355 356 354 357 357 349 351 355 359 356 352 356 357 1 3 0 1 357 354
143 147 152 144 139 133 133 133 130 121 111 107 122 126 128 125 121 123 128 133 136 137 134 127 127 127 133 137 139 138 144 142 145 151 166 178 131 119 133 161 112 86 339 319 314 295 298 299 352 10 348 345 333 333 331 338 341 351 352 353 355 353 359 1 358 353 355 357 357 357 356 355 356 355 349 343 342 343 350 355 358 358 0 356 352 354 358
134 130 135 136 133 132 126 121 118 119 117 119 120 123 121 123 131 136 138 138 137 139 139 139 140 141 145 145 145 148 151 155 154 162 147 132 91 84 121 146 159 248 305 330 297 287 292 314 356 350 350 345 342 338 332 336 349 349 350 351 348 353 348 351 355 357 355 358 354 352 350 350 349 349 346 341 340 345 349 354 350 352 349 350 348 352 357
136 136 134 131 131 130 131 134 137 133 126 122 118 116 119 124 128 134 136 137 139 139 141 141 146 148 152 156 156 148 148 151 159 158 144 151 151 194 173 181 172 150 269 311 290 286 282 298 342 348 352 346 346 343 340 333 341 346 343 340 337 343 345 351 350 349 348 346 346 344 342 348 344 341 341 341 343 345 343 344 347 350 349 349 349 352 354
121 118 121 122 128 128 127 121 116 118 122 120 112 105 113 122 127 131 137 138 139 142 146 144 144 148 153 144 117 106 101 102 100 89 90 126 147 155 145 140 139 180 251 284 268 271 278 308 332 348 348 347 346 341 330 330 327 328 327 331 327 332 339 343 339 336 339 336 335 338 337 337 341 337 337 342 344 341 340 344 340 342 347 347 348 349 347
117 117 122 120 114 115 117 118 122 122 123 125 128 134 136 133 130 130 129 128 126 129 133 140 138 142 143 144 146 142 136 127 109 115 94 92 104 117 131 143 167 182 190 239 256 256 261 285 320 340 346 343 340 327 315 314 316 318 321 320 323 329 328 329 334 328 327 322 331 336 336 338 335 335 333 338 339 341 338 343 343 341 340 344 345 349 349
125 125 127 128 126 125 122 126 129 134 140 141 138 133 138 133 126 120 121 122 125 122 116 109 110 119 127 129 123 132 151 146 130 158 148 132 128 123 133 125 129 191 279 276 267 271 288 304 327 340 340 341 335 317 322 313 320 307 306 311 327 311 309 319 323 319 321 320 326 324 327 331 332 337 336 333 332 336 335 338 333 336 337 342 341 343 341
116 119 120 122 127 132 134 136 136 133 132 130 129 131 133 127 120 121 124 126 124 118 117 116 121 122 124 126 128 118 67 17 120 154 155 131 124 128 122 124 210 256 252 247 256 274 287 304 323 330 335 339 326 318 316 321 319 307 310 309 292 290 297 291 288 296 304 309 312 319 317 319 324 330 325 325 327 329 332 331 331 332 334 338 334 334 336
119 120 125 136 139 143 144 139 135 133 130 133 133 135 137 132 131 140 142 143 137 129 126 131 136 141 144 146 133 107 90 93 86 95 106 109 121 129 131 147 181 250 256 247 260 258 275 302 314 318 322 314 303 299 295 301 310 314 304 297 297 302 299 303 311 318 315 313 311 310 312 313 311 318 319 319 319 324 323 322 323 327 334 334 325 326 326
128 127 128 126 124 118 109 111 126 130 135 136 137 140 142 142 135 137 148 151 146 141 141 139 144 151 153 146 132 126 116 113 108 111 112 131 139 153 150 159 206 230 251 254 255 261 261 255 237 213 311 297 293 294 298 299 298 292 297 299 298 291 295 301 302 297 293 297 300 305 302 305 305 303 303 306 313 315 313 319 324 329 326 324 324 321 318
108 111 116 120 118 111 104 109 112 117 123 133 142 146 147 135 130 131 139 156 154 151 149 144 145 165 155 141 136 133 133 129 126 124 132 129 143 146 173 188 205 235 237 236 243 251 263 255 262 276 264 257 260 266 281 290 287 283 286 291 292 293 293 294 292 289 283 284 290 289 291 293 293 296 298 301 300 301 305 308 312 311 311 310 312 313 311